QAEM 100 R/B

基本信息
目录编号:
58818
目录名称:
QAEM 100 R/B
国际标识:
2024-015B
轨道中心:
EARTH
物体状态:
在轨
发射日期:
2024-01-20 UTC
国别:
伊朗 (IR)
轨道信息
数据来源: 国际轨道数据
星历时间: 2026-07-14T03:58:01+0800
半长轴: 7122.432km
偏心率: 0.0037296
轨道倾角: 64.504°
近地点辐角: 249.535°
升交点赤经: 355.983°
平近点角: 110.173°
近地点: 717.731km
远地点: 770.859km
周期: 99.702分钟
每日圈数: 14.443096
详细信息
发射场:
SMTS
轨道高度:
LEO
数据来源:
AOE Integration Group
参考系:
TEME
时间系统:
UTC
历元类型:
SGP4
2D轨道图
3D轨道图
轨道高度分析图
轨道倾角分析图
轨道综合分析图
查看轨道综合分析图